CW8399 Weather Reports


Display with metric or nautical units.
time (UTC)temp
F
wind
direction
speed
MPH
gust
MPH
rain 1hr
in
rain 24hr
in
rain mn
in
humidity
%
barometer
mb
20260901220836 97 353 9.0 19.0 0.00 0.00 0.00
20260901220337 97 0 10.0 19.0 0.00 0.00 0.00
20260901215822 97 358 5.0 20.0 0.00 0.00 0.00
20260901215323 97 356 13.0 20.0 0.00 0.00 0.00
20260901214824 97 0 8.0 12.0 0.00 0.00 0.00
20260901214346 97 358 5.0 14.0 0.00 0.00 0.00
20260901213834 97 355 5.0 18.0 0.00 0.00 0.00
20260901213336 97 347 13.0 18.0 0.00 0.00 0.00
20260901212836 97 0 6.0 16.0 0.00 0.00 0.00
20260901212336 97 0 7.0 18.0 0.00 0.00 0.00
20260901211837 97 351 6.0 13.0 0.00 0.00 0.00
20260901211338 97 359 7.0 16.0 0.00 0.00 0.00
20260901210830 97 357 11.0 17.0 0.00 0.00 0.00
20260901210330 97 0 7.0 17.0 0.00 0.00 0.00
20260901205830 97 0 9.0 15.0 0.00 0.00 0.00
20260901204831 97 355 12.0 19.0 0.00 0.00 0.00
20260901204338 97 0 9.0 15.0 0.00 0.00 0.00
20260901203828 96 0 4.0 17.0 0.00 0.00 0.00
20260901203328 96 358 11.0 20.0 0.00 0.00 0.00
20260901202828 96 356 11.0 23.0 0.00 0.00 0.00
20260901202328 96 352 12.0 23.0 0.00 0.00 0.00
20260901201828 96 346 7.0 20.0 0.00 0.00 0.00
20260901200327 96 344 4.0 22.0 0.00 0.00 0.00
20260901195827 96 357 9.0 22.0 0.00 0.00 0.00
20260901194831 96 359 9.0 14.0 0.00 0.00 0.00
20260901194334 95 327 5.0 18.0 0.00 0.00 0.00
20260901193825 95 0 11.0 18.0 0.00 0.00 0.00
20260901193325 95 344 8.0 18.0 0.00 0.00 0.00
20260901192826 95 354 9.0 15.0 0.00 0.00 0.00
20260901192332 94 359 6.0 19.0 0.00 0.00 0.00
20260901191835 94 346 9.0 19.0 0.00 0.00 0.00
20260901191337 94 351 6.0 19.0 0.00 0.00 0.00
20260901190831 94 335 6.0 13.0 0.00 0.00 0.00
20260901190331 94 358 7.0 18.0 0.00 0.00 0.00
20260901185317 93 339 7.0 18.0 0.00 0.00 0.00
20260901184822 93 0 11.0 18.0 0.00 0.00 0.00
20260901184342 93 346 7.0 16.0 0.00 0.00 0.00
20260901183833 93 354 2.0 18.0 0.00 0.00 0.00
20260901183335 93 358 11.0 19.0 0.00 0.00 0.00
20260901182336 92 355 9.0 22.0 0.00 0.00 0.00
20260901181835 92 344 9.0 22.0 0.00 0.00 0.00
20260901181337 92 357 9.0 20.0 0.00 0.00 0.00
20260901180337 92 352 11.0 17.0 0.00 0.00 0.00
20260901175322 91 359 6.0 20.0 0.00 0.00 0.00
20260901174822 91 354 10.0 15.0 0.00 0.00 0.00
20260901174343 90 359 8.0 17.0 0.00 0.00 0.00
20260901173836 90 354 9.0 17.0 0.00 0.00 0.00
20260901172822 90 9 6.0 15.0 0.00 0.00 0.00
20260901171826 89 354 3.0 14.0 0.00 0.00 0.00
20260901171348 89 339 6.0 17.0 0.00 0.00 0.00
20260901170819 88 357 7.0 12.0 0.00 0.00 0.00
20260901170320 88 355 8.0 11.0 0.00 0.00 0.00
20260901165822 88 359 5.0 11.0 0.00 0.00 0.00
20260901165322 87 359 5.0 11.0 0.00 0.00 0.00
20260901164828 87 353 6.0 11.0 0.00 0.00 0.00
20260901164319 87 0 6.0 11.0 0.00 0.00 0.00
20260901163823 86 0 5.0 12.0 0.00 0.00 0.00
20260901163323 86 1 7.0 12.0 0.00 0.00 0.00
20260901162822 85 356 4.0 10.0 0.00 0.00 0.00
20260901162323 85 351 2.0 10.0 0.00 0.00 0.00
20260901161821 85 344 4.0 10.0 0.00 0.00 0.00
20260901161341 84 356 2.0 9.0 0.00 0.00 0.00
20260901160830 84 356 3.0 11.0 0.00 0.00 0.00
20260901160330 84 359 5.0 11.0 0.00 0.00 0.00
20260901155831 83 345 3.0 7.0 0.00 0.00 0.00
20260901154835 83 7 2.0 8.0 0.00 0.00 0.00
20260901153833 82 0 2.0 6.0 0.00 0.00 0.00
20260901152325 81 0 4.0 8.0 0.00 0.00 0.00
20260901151824 81 359 3.0 8.0 0.00 0.00 0.00
20260901151328 80 352 5.0 8.0 0.00 0.00 0.00
20260901150820 80 354 4.0 7.0 0.00 0.00 0.00
20260901150322 80 350 4.0 6.0 0.00 0.00 0.00
20260901145325 79 0 2.0 4.0 0.00 0.00 0.00
20260901144826 79 262 2.0 4.0 0.00 0.00 0.00
20260901144329 78 141 3.0 4.0 0.00 0.00 0.00
20260901143821 78 288 1.0 4.0 0.00 0.00 0.00
20260901143321 78 109 2.0 4.0 0.00 0.00 0.00
20260901142821 78 359 3.0 4.0 0.00 0.00 0.00
20260901142323 77 0 1.0 3.0 0.00 0.00 0.00
20260901141824 77 0 2.0 3.0 0.00 0.00 0.00
20260901141329 77 0 1.0 2.0 0.00 0.00 0.00
20260901140822 77 0 0.0 2.0 0.00 0.00 0.00
20260901140323 77 0 1.0 2.0 0.00 0.00 0.00
20260901135825 77 0 1.0 1.0 0.00 0.00 0.00
20260901134828 77 0 1.0 2.0 0.00 0.00 0.00
20260901134329 77 0 0.0 1.0 0.00 0.00 0.00
20260901133822 77 0 0.0 1.0 0.00 0.00 0.00
20260901133323 77 347 0.0 1.0 0.00 0.00 0.00
20260901131827 78 0 1.0 2.0 0.00 0.00 0.00
20260901130823 79 0 1.0 4.0 0.00 0.00 0.00
20260901130324 79 4 2.0 3.0 0.00 0.00 0.00
20260901125827 79 0 1.0 4.0 0.00 0.00 0.00
20260901125326 79 1 1.0 4.0 0.00 0.00 0.00
20260901124831 80 348 1.0 6.0 0.00 0.00 0.00
20260901124332 80 354 1.0 6.0 0.00 0.00 0.00
20260901123826 80 353 4.0 7.0 0.00 0.00 0.00
20260901123327 80 0 4.0 7.0 0.00 0.00 0.00
20260901122826 80 1 3.0 7.0 0.00 0.00 0.00
20260901121828 80 0 2.0 6.0 0.00 0.00 0.00
20260901121330 80 0 1.0 6.0 0.00 0.00 0.00
20260901120821 80 355 4.0 6.0 0.00 0.00 0.00
20260901115824 80 354 3.0 5.0 0.00 0.00 0.00
20260901115326 80 0 2.0 5.0 0.00 0.00 0.00
20260901114823 80 0 2.0 5.0 0.00 0.00 0.00
20260901114344 80 0 2.0 5.0 0.00 0.00 0.00
20260901113835 81 0 2.0 5.0 0.00 0.00 0.00
20260901113321 81 0 1.0 7.0 0.00 0.00 0.00
20260901112822 81 0 3.0 9.0 0.00 0.00 0.00
20260901112321 81 359 6.0 9.0 0.00 0.00 0.00
20260901111819 81 359 4.0 8.0 0.00 0.00 0.00
20260901111341 81 354 3.0 7.0 0.00 0.00 0.00
20260901110833 81 314 2.0 9.0 0.00 0.00 0.00
20260901105833 81 0 4.0 9.0 0.00 0.00 0.00
20260901105333 81 303 0.0 6.0 0.00 0.00 0.00
20260901104835 81 355 3.0 6.0 0.00 0.00 0.00
20260901104336 81 359 2.0 4.0 0.00 0.00 0.00
20260901103333 81 359 2.0 4.0 0.00 0.00 0.00
20260901102836 82 359 1.0 6.0 0.00 0.00 0.00
20260901102336 82 0 3.0 5.0 0.00 0.00 0.00
20260901101819 82 0 3.0 6.0 0.00 0.00 0.00
20260901100836 82 2 3.0 8.0 0.00 0.00 0.00
20260901100338 82 0 1.0 8.0 0.00 0.00 0.00
20260901095836 82 358 4.0 6.0 0.00 0.00 0.00
20260901094839 82 0 2.0 5.0 0.00 0.00 0.00
20260901094341 82 0 2.0 7.0 0.00 0.00 0.00
20260901093833 82 0 3.0 8.0 0.00 0.00 0.00
20260901093335 82 357 3.0 8.0 0.00 0.00 0.00
20260901092836 82 3 3.0 8.0 0.00 0.00 0.00
20260901092336 82 0 3.0 8.0 0.00 0.00 0.00
20260901091838 82 0 3.0 7.0 0.00 0.00 0.00
20260901091339 82 359 2.0 6.0 0.00 0.00 0.00
20260901090831 83 348 3.0 6.0 0.00 0.00 0.00
20260901090330 83 0 2.0 4.0 0.00 0.00 0.00
20260901085835 83 0 1.0 4.0 0.00 0.00 0.00
20260901084819 83 0 3.0 4.0 0.00 0.00 0.00
20260901084341 83 340 3.0 4.0 0.00 0.00 0.00
20260901083833 83 0 2.0 5.0 0.00 0.00 0.00
20260901083336 83 0 2.0 5.0 0.00 0.00 0.00
20260901082832 83 343 1.0 5.0 0.00 0.00 0.00
20260901081339 84 96 1.0 2.0 0.00 0.00 0.00
20260901080830 84 96 0.0 2.0 0.00 0.00 0.00
20260901080329 84 96 0.0 3.0 0.00 0.00 0.00
20260901075828 84 136 1.0 3.0 0.00 0.00 0.00
20260901075327 85 96 2.0 2.0 0.00 0.00 0.00
20260901073832 86 322 0.0 2.0 0.00 0.00 0.00
20260901073337 86 308 0.0 4.0 0.00 0.00 0.00
20260901072838 86 0 2.0 6.0 0.00 0.00 0.00
20260901071829 86 342 3.0 7.0 0.00 0.00 0.00
20260901070823 87 359 3.0 7.0 0.00 0.00 0.00
20260901065829 87 351 3.0 6.0 0.00 0.00 0.00
20260901065329 87 0 2.0 7.0 0.00 0.00 0.00
20260901064830 87 359 2.0 7.0 0.00 0.00 0.00
20260901063825 88 0 1.0 6.0 0.00 0.00 0.00
20260901063328 88 323 3.0 8.0 0.00 0.00 0.00
20260901062829 88 0 3.0 8.0 0.00 0.00 0.00
20260901062331 88 0 3.0 8.0 0.00 0.00 0.00
20260901061832 88 0 3.0 9.0 0.00 0.00 0.00
20260901061333 89 358 3.0 9.0 0.00 0.00 0.00
20260901060825 89 359 5.0 12.0 0.00 0.00 0.00
20260901060326 89 351 6.0 12.0 0.00 0.00 0.00
20260901055832 89 344 7.0 12.0 0.00 0.00 0.00
20260901055333 89 355 2.0 9.0 0.00 0.00 0.00
20260901054835 89 352 3.0 10.0 0.00 0.00 0.00
20260901054337 89 355 3.0 13.0 0.00 0.00 0.00
20260901053334 90 0 5.0 9.0 0.00 0.00 0.00
20260901052836 90 4 3.0 10.0 0.00 0.00 0.00
20260901052337 90 359 5.0 15.0 0.00 0.00 0.00
20260901051341 90 357 8.0 17.0 0.00 0.00 0.00
20260901050834 90 350 11.0 18.0 0.00 0.00 0.00
20260901050335 90 349 6.0 18.0 0.00 0.00 0.00
20260901045837 90 337 6.0 18.0 0.00 0.00 0.00
20260901045318 90 338 8.0 18.0 0.00 0.00 0.00
20260901044825 91 333 7.0 18.0 0.00 0.00 0.00
20260901044346 91 348 9.0 18.0 0.00 0.00 0.00
20260901043839 91 351 9.0 14.0 0.00 0.00 0.00
20260901043319 91 332 7.0 14.0 0.00 0.00 0.00
20260901042822 91 338 6.0 14.0 0.00 0.00 0.00
20260901042322 91 359 6.0 13.0 0.00 0.00 0.00
20260901041825 91 357 7.0 13.0 0.00 0.00 0.00
20260901040839 92 343 9.0 23.0 0.00 0.00 0.00
20260901040320 92 353 6.0 18.0 0.00 0.00 0.00
20260901035324 92 357 8.0 13.0 0.00 0.00 0.00
20260901034826 92 357 7.0 16.0 0.00 0.00 0.00
20260901034346 92 357 8.0 16.0 0.00 0.00 0.00
20260901033839 92 349 10.0 14.0 0.00 0.00 0.00
20260901033323 92 352 8.0 12.0 0.00 0.00 0.00
20260901032824 93 0 2.0 9.0 0.00 0.00 0.00
20260901031830 93 355 3.0 6.0 0.00 0.00 0.00
20260901031333 93 346 2.0 4.0 0.00 0.00 0.00
20260901030827 93 0 2.0 4.0 0.00 0.00 0.00
20260901030329 94 0 2.0 5.0 0.00 0.00 0.00
20260901025831 94 0 2.0 6.0 0.00 0.00 0.00
20260901025332 94 0 4.0 6.0 0.00 0.00 0.00
20260901024832 94 358 3.0 6.0 0.00 0.00 0.00
20260901024334 95 0 3.0 6.0 0.00 0.00 0.00
20260901023827 95 0 3.0 5.0 0.00 0.00 0.00
20260901023326 95 0 3.0 11.0 0.00 0.00 0.00
20260901022828 95 0 4.0 11.0 0.00 0.00 0.00
20260901022335 96 0 3.0 7.0 0.00 0.00 0.00
20260901021835 96 357 3.0 11.0 0.00 0.00 0.00
20260901021337 96 0 5.0 11.0 0.00 0.00 0.00
20260901020829 97 0 7.0 13.0 0.00 0.00 0.00
20260901020331 97 0 5.0 13.0 0.00 0.00 0.00
20260901015829 97 359 4.0 11.0 0.00 0.00 0.00
20260901015329 98 0 4.0 16.0 0.00 0.00 0.00
20260901014830 98 0 6.0 16.0 0.00 0.00 0.00
20260901014331 98 359 6.0 16.0 0.00 0.00 0.00
20260901013326 99 356 8.0 17.0 0.00 0.00 0.00
20260901012828 99 0 7.0 14.0 0.00 0.00 0.00
20260901012329 99 0 8.0 14.0 0.00 0.00 0.00
20260901011830 100 359 7.0 13.0 0.00 0.00 0.00
20260901011337 100 0 8.0 17.0 0.00 0.00 0.00
20260901010830 100 0 4.0 17.0 0.00 0.00 0.00
20260901010330 100 353 10.0 17.0 0.00 0.00 0.00
20260901005831 100 0 7.0 17.0 0.00 0.00 0.00
20260901005331 100 352 9.0 14.0 0.00 0.00 0.00
20260901004832 100 0 6.0 16.0 0.00 0.00 0.00
20260901004332 100 0 8.0 18.0 0.00 0.00 0.00
20260901003822 100 359 7.0 18.0 0.00 0.00 0.00
20260901003323 100 359 6.0 17.0 0.00 0.00 0.00
20260901002824 100 356 9.0 16.0 0.00 0.00 0.00
20260901002324 100 359 7.0 13.0 0.00 0.00 0.00
20260901001328 100 355 9.0 15.0 0.00 0.00 0.00
20260901000836 100 355 5.0 19.0 0.00 0.00 0.00
20260901000321 100 359 12.0 19.0 0.00 0.00 0.00
20260831235322 101 355 4.0 14.0 0.00 0.00 0.00
20260831234346 101 353 10.0 22.0 0.00 0.00 0.00
20260831233837 101 354 16.0 22.0 0.00 0.00 0.00
20260831233337 101 337 3.0 14.0 0.00 0.00 0.00
20260831232838 100 352 4.0 8.0 0.00 0.00 0.00
20260831232319 100 359 2.0 16.0 0.00 0.00 0.00
20260831231824 100 0 5.0 17.0 0.00 0.00 0.00
20260831231346 100 344 8.0 17.0 0.00 0.00 0.00
20260831230836 101 0 8.0 17.0 0.00 0.00 0.00
20260831230336 100 346 7.0 17.0 0.00 0.00 0.00
20260831225836 100 359 6.0 11.0 0.00 0.00 0.00
20260831225319 100 346 7.0 16.0 0.00 0.00 0.00
20260831224824 100 5 10.0 16.0 0.00 0.00 0.00
20260831224344 100 342 5.0 15.0 0.00 0.00 0.00
20260831223836 101 353 9.0 16.0 0.00 0.00 0.00
20260831223337 101 353 11.0 18.0 0.00 0.00 0.00
20260831222838 101 355 8.0 18.0 0.00 0.00 0.00
20260831222320 101 337 12.0 19.0 0.00 0.00 0.00
20260831221821 101 352 14.0 19.0 0.00 0.00 0.00